Location: Fazenda Monte Alegre
(4.8500°S, 38.0333°W)
Time: 17:27:00
(UTC+00:00)

CAT/Thesee - Pass Details

Date: 24 September 2020
Orbit: 283 x 26226 km, 10.7° (Epoch: 24 October)

Event Time Altitude Azimuth Distance (km) Brightness Sun altitude
Rises 21:11:50 0° 261° (W) 5,699 11.0 -11.9°
Reaches altitude 10° 21:17:43 10° 253° (WSW) 2,861 8.8 -13.3°
Maximum altitude 21:22:34 34° 186° (S) 753 4.6 -14.5°
Enters shadow 21:23:39 23° 137° (SE) 845 4.4 -14.8°
